KI5FU-13 Weather Reports


time (UTC)temp
C
wind
direction
speed
KPH
gust
KPH
rain 1hr
cm
rain 24hr
cm
rain mn
cm
humidity
%
barometer
mb
20260510060040 23 114 1.6 6.4 0.00 0.05 0.00 64 1011.2
20260510054538 23 152 3.2 8.0 0.00 0.05 0.00 64 1010.9
20260510053035 23 159 6.4 12.9 0.00 0.05 0.00 64 1010.9
20260510051534 23 154 8.0 12.9 0.00 0.05 0.00 64 1010.9
20260510050033 23 159 6.4 12.9 0.00 0.05 0.05 64 1010.8
20260510044532 23 148 6.4 11.3 0.00 0.05 0.05 64 1010.7
20260510043031 24 133 3.2 6.4 0.00 0.05 0.05 64 1010.6
20260510041531 24 123 3.2 4.8 0.00 0.05 0.05 63 1010.5
20260510040031 25 123 1.6 3.2 0.00 0.05 0.05 63 1010.3
20260510034530 25 123 1.6 6.4 0.00 0.05 0.05 62 1010.2
20260510033029 25 123 1.6 4.8 0.00 0.05 0.05 62 1010.2
20260510031529 25 119 3.2 6.4 0.00 0.05 0.05 61 1010.1
20260510030028 25 124 6.4 14.5 0.00 0.05 0.05 60 1010.0
20260510024529 25 119 4.8 11.3 0.00 0.05 0.05 60 1009.6
20260510023030 25 76 3.2 4.8 0.00 0.05 0.05 60 1009.4
20260510021530 25 71 3.2 6.4 0.00 0.05 0.05 59 1009.4
20260510020026 25 69 1.6 3.2 0.00 0.05 0.05 59 1009.0
20260510014526 26 69 3.2 4.8 0.00 0.05 0.05 57 1008.8
20260510013025 26 69 0.0 3.2 0.00 0.05 0.05 55 1008.5
20260510011524 27 69 0.0 3.2 0.00 0.05 0.05 54 1008.3
20260510010024 27 69 4.8 14.5 0.00 0.05 0.05 52 1008.5
20260510004523 28 43 9.7 14.5 0.00 0.05 0.05 49 1008.6
20260510003022 31 116 3.2 6.4 0.00 0.05 0.05 49 1008.5
20260510001522 31 116 1.6 11.3 0.00 0.05 0.05 47 1008.4
20260510000025 32 126 3.2 11.3 0.00 0.05 0.05 45 1008.4
20260509234535 33 202 0.0 6.4 0.00 0.05 0.05 41 1008.1
20260509233020 33 203 4.8 9.7 0.00 0.05 0.05 40 1007.9
20260509231521 33 207 0.0 6.4 0.00 0.05 0.05 40 1008.0
20260509230020 33 208 0.0 4.8 0.00 0.05 0.05 40 1007.9
20260509224529 33 194 0.0 8.0 0.00 0.05 0.05 41 1007.9
20260509223017 33 205 3.2 8.0 0.00 0.05 0.05 42 1008.0
20260509221517 33 184 1.6 6.4 0.00 0.05 0.05 44 1007.7
20260509220015 33 199 0.0 3.2 0.00 0.05 0.05 45 1007.6
20260509214511 33 183 0.0 6.4 0.00 0.05 0.05 46 1007.6
20260509213007 33 205 3.2 8.0 0.00 0.05 0.05 49 1007.9
20260509211508 32 103 3.2 11.3 0.00 0.05 0.05 48 1008.3
20260509210001 32 304 4.8 16.1 0.00 0.05 0.05 49 1008.5
20260509204607 32 295 1.6 8.0 0.00 0.05 0.05 49 1008.6
20260509203105 32 306 1.6 8.0 0.00 0.05 0.05 49 1008.9
20260509201552 31 280 3.2 12.9 0.00 0.05 0.05 49 1008.7
20260509200049 31 304 3.2 19.3 0.00 0.05 0.05 50 1008.9
20260509194546 31 305 4.8 12.9 0.00 0.05 0.05 54 1009.1
20260509193041 30 230 4.8 20.9 0.00 0.05 0.05 56 1009.4
20260509191543 30 291 9.7 16.1 0.00 0.05 0.05 58 1009.4
20260509190036 30 291 4.8 17.7 0.00 0.05 0.05 60 1009.7
20260509184543 30 297 9.7 16.1 0.00 0.05 0.05 61 1009.7
20260509183031 29 292 4.8 12.9 0.00 0.05 0.05 62 1009.9
20260509181529 28 231 3.2 11.3 0.00 0.05 0.05 62 1010.2
20260509180044 28 245 3.2 6.4 0.00 0.05 0.05 62 1010.6
20260509174529 28 248 3.2 8.0 0.00 0.05 0.05 63 1010.8
20260509173022 27 311 0.0 14.5 0.00 0.05 0.05 66 1011.0
20260509171520 27 263 4.8 11.3 0.00 0.05 0.05 71 1011.1
20260509170028 26 200 3.2 9.7 0.00 0.05 0.05 77 1011.2
20260509164513 25 215 1.6 6.4 0.00 0.05 0.05 80 1011.1
20260509163008 25 234 3.2 6.4 0.00 0.05 0.05 80 1011.0
20260509161506 24 266 4.8 11.3 0.00 0.05 0.05 80 1010.8
20260509160005 23 341 4.8 8.0 0.00 0.05 0.05 81 1010.9
20260509154505 23 327 6.4 8.0 0.00 0.05 0.05 80 1011.2
20260509153002 23 51 3.2 9.7 0.00 0.05 0.05 80 1010.4
20260509151500 23 91 3.2 8.0 0.00 0.05 0.05 80 1010.3
20260509150100 23 242 0.0 4.8 0.00 0.05 0.05 80 1011.0
20260509144557 23 242 1.6 4.8 0.00 0.05 0.05 81 1011.1
20260509143107 23 216 1.6 8.0 0.00 0.05 0.05 80 1010.9
20260509141555 23 228 6.4 9.7 0.00 0.05 0.05 80 1010.6
20260509140053 23 171 3.2 6.4 0.00 0.05 0.05 80 1010.6
20260509134554 23 57 1.6 4.8 0.00 0.05 0.05 80 1010.0
20260509133104 23 67 6.4 12.9 0.00 0.05 0.05 80 1009.9
20260509131552 23 103 3.2 6.4 0.05 0.05 0.05 80 1010.5
20260509130051 23 14 0.0 3.2 0.05 0.05 0.05 80 1011.5
20260509124551 22 13 3.2 6.4 0.05 0.05 0.05 79 1011.4
20260509123051 22 148 4.8 8.0 0.05 0.05 0.05 79 1011.0
20260509121552 22 65 3.2 4.8 0.00 0.00 0.00 79 1011.2
20260509120048 22 65 1.6 6.4 0.00 0.00 0.00 79 1011.2
20260509114546 22 65 3.2 6.4 0.00 0.00 0.00 78 1010.9
20260509113045 22 49 4.8 8.0 0.00 0.00 0.00 78 1010.5
20260509111544 22 51 1.6 6.4 0.00 0.00 0.00 78 1010.0
20260509110046 22 76 0.0 6.4 0.00 0.00 0.00 77 1009.9
20260509104600 22 48 0.0 3.2 0.00 0.00 0.00 77 1010.4
20260509103043 22 79 1.6 6.4 0.00 0.00 0.00 77 1010.5
20260509101542 22 46 4.8 8.0 0.00 0.00 0.00 76 1010.6
20260509100041 22 305 8.0 9.7 0.00 0.00 0.00 76 1010.6
20260509094542 22 56 4.8 8.0 0.00 0.00 0.00 75 1009.7
20260509093040 22 90 3.2 9.7 0.00 0.00 0.00 75 1009.0
20260509091542 22 159 1.6 3.2 0.00 0.00 0.00 75 1009.7
20260509090048 22 159 0.0 4.8 0.00 0.00 0.00 74 1009.9
20260509084538 22 150 4.8 11.3 0.00 0.00 0.00 74 1009.4
20260509083034 22 178 6.4 16.1 0.00 0.00 0.00 74 1009.7
20260509081547 22 139 4.8 11.3 0.00 0.00 0.00 73 1009.7
20260509080034 22 126 4.8 11.3 0.00 0.00 0.00 73 1009.8
20260509074531 22 136 6.4 12.9 0.00 0.00 0.00 73 1009.9
20260509073042 22 155 4.8 12.9 0.00 0.00 0.00 72 1010.1
20260509071538 22 148 3.2 11.3 0.00 0.00 0.00 72 1010.0
20260509070038 22 147 0.0 6.4 0.00 0.00 0.00 72 1010.0
20260509064527 22 165 6.4 9.7 0.00 0.00 0.00 72 1010.1
20260509063050 22 147 6.4 12.9 0.00 0.00 0.00 72 1009.9
20260509061534 22 144 6.4 12.9 0.00 0.00 0.00 71 1010.1